OpenBCM V1.08-5-g2f4a (Linux)

Packet Radio Mailbox

IZ3LSV

[San Dona' di P. JN]

 Login: GUEST





  
I0OJJ  > KEPS     26.05.25 01:44l 347 Lines 16622 Bytes #16 (0) @ AMSAT
BID : ORB25146.1
Read: GUEST
Subj: 2Line Orbital Elements 25146.AMSAT
Path: IZ3LSV<IK6IHL<IK7NXU<HB9ON<DK0WUE<PD0LPM<PI8ZTM<IR0AAB<VE3TOK<LU9DCE<
      EA2RCF<I0OJJ
Sent: 250526/0025z @:I0OJJ.ITA.EU [Rome] obcm1.08-10-g596e
From: I0OJJ @ I0OJJ.ITA.EU (Gustavo)
To:   KEPS @ AMSAT
X-Info: This message was generated automatically


QST de W1STR

AMSAT Orbital Elements for Amateur Satellites in TLE Format
From Orbital Analysis Office
New England Sci-Tech STEM Education Center
Natick, MA May 26, 2025
To all radio amateurs


These element sets describe the orbits of various satellites 
in use by the amateur radio community. For details see:
www.amsat.org/keplerian-elements-formats/

A daily update of element sets is available at:
www.amsat.org/tle/daily-bulletin.txt
or without bulletin text:
www.amsat.org/tle/dailytle.txt


AO-07
1 07530U 74089B   25145.50485558 -.00000031  00000-0  95498-4 0  9994
2 07530 101.9933 149.6085 0012430 149.3142   5.5018 12.53689294311935
UO-11
1 14781U 84021B   25145.61904724  .00001250  00000-0  13750-3 0  9993
2 14781  97.7537 112.2852 0008733  35.7782 324.4019 14.89342915220413
AO-27
1 22825U 93061C   25145.60221742  .00000101  00000-0  55580-4 0  9998
2 22825  98.7372 207.0823 0008989 150.4709 209.6983 14.30794062651846
FO-29
1 24278U 96046B   25145.30017384 -.00000009  00000-0  26365-4 0  9997
2 24278  98.5778  41.2012 0350443  22.3620 339.2383 13.53247751420705
NOAA-15
1 25338U 98030A   25145.80618052  .00000237  00000-0  11508-3 0  9998
2 25338  98.5357 171.2926 0011097  47.9708 312.2415 14.26970873406297
GO-32
1 25397U 98043D   25145.86938692  .00000061  00000-0  46483-4 0  9994
2 25397  98.9697 124.6824 0000388 202.0177 158.0985 14.24311313396413
ISS
1 25544U 98067A   25145.82661484  .00010926  00000-0  20097-3 0  9995
2 25544  51.6367  57.8636 0002082 149.0639 211.0473 15.49737512511693
NO-44
1 26931U 01043C   25145.76639290  .00000137  00000-0  82573-4 0  9998
2 26931  67.0490 166.1409 0005951 274.8750  85.1673 14.31726741235140
SO-50
1 27607U 02058C   25145.56816444  .00000908  00000-0  13114-3 0  9992
2 27607  64.5530 246.8712 0054584 337.4582  22.4125 14.81585169207008
CO-55
1 27844U 03031E   25145.01068594  .00000296  00000-0  14793-3 0  9996
2 27844  98.6760 153.4852 0008637 227.6727 132.3720 14.23984026136421
CO-57
1 27848U 03031J   25145.44391515  .00000251  00000-0  12987-3 0  9993
2 27848  98.6791 153.9303 0008373 245.4902 114.5404 14.23320627136214
RS-22
1 27939U 03042A   25145.86930229  .00001044  00000-0  17336-3 0  9997
2 27939  98.3271 314.9672 0012528  60.4507  75.8354 14.72316385158662
NOAA-18
1 28654U 05018A   25145.82895229  .00000202  00000-0  13047-3 0  9993
2 28654  98.8421 225.4708 0014581 167.1925 192.9621 14.13603044 31669
CO-58
1 28895U 05043F   25145.34928423  .00001309  00000-0  22169-3 0  9992
2 28895  98.2478 289.5113 0014321   0.6631 359.4592 14.70963554 44704
CO-65
1 32785U 08021C   25145.57276062  .00003990  00000-0  29101-3 0  9995
2 32785  97.7846 116.6280 0007482 261.5495  98.4883 15.04283467926822
CO-66
1 32791U 08021J   25144.88883100  .00010639  00000-0  52143-3 0  9992
2 32791  97.7264 124.5856 0002832 187.3096 172.8096 15.18326908928116
RS-30
1 32953U 08025A   25145.83530887  .00000034  00000-0  17035-3 0  9992
2 32953  82.5037 236.3449 0020444  79.9987 280.3398 12.43164572771703
NOAA-19
1 33591U 09005A   25145.83302305  .00000182  00000-0  12093-3 0  9995
2 33591  98.9978 210.4542 0014460  49.1833 311.0591 14.13366663840027
SRMSAT
1 37841U 11058D   25145.62275185  .00000419  00000-0  83673-4 0  9996
2 37841  19.9715 245.0647 0011615 260.7496 231.5181 14.11431457702992
ZACUBE-1
1 39417U 13066B   25145.60945942  .00004081  00000-0  35697-3 0  9992
2 39417  97.7785 102.7046 0045869 101.7354 258.9019 14.96489942622675
Delfi-N3xt
1 39428U 13066N   25145.50116749  .00006996  00000-0  71418-3 0  9996
2 39428  97.8362  63.3226 0086785  50.9697 309.9204 14.88131039616834
GOMX-1
1 39430U 13066Q   25145.82720356  .00001295  00000-0  20858-3 0  9998
2 39430  97.6851   5.3968 0131229 239.3943 119.4266 14.67579326613244
LO-74
1 39440U 13066AA  25145.83498165  .00002412  00000-0  24869-3 0  9998
2 39440  97.8490  90.4993 0060784 227.8479 131.7566 14.89833436620441
AO-73
1 39444U 13066AE  25145.36002038  .00006095  00000-0  45899-3 0  9997
2 39444  97.7831 107.2168 0044116  78.7407 281.8770 15.02095939621303
DTUSAT-2
1 40030U 14033W   25145.36297627  .00004840  00000-0  31823-3 0  9993
2 40030  98.0540 116.4496 0011121 107.8549 252.3891 15.08047730594100
EO-80
1 40032U 14033Y   25145.38411766  .00005826  00000-0  38132-3 0  9994
2 40032  98.0427 116.1475 0010339  58.6997 301.5241 15.08129493594080
LILACSAT-2
1 40908U 15049K   25145.78259079  .00009946  00000-0  26320-3 0  9998
2 40908  97.5060 165.7750 0008617 201.4231 158.6654 15.38558656535950
IO-86
1 40931U 15052B   25103.16584653  .00001824  00000-0  15574-3 0  9999
2 40931   5.9984   7.7323 0012484  15.4851 344.5658 14.78734415515920
Horyu-4
1 41340U 16012D   25145.60225960  .00018847  00000-0  51314-3 0  9994
2 41340  30.9972 232.6165 0006421 255.6430 104.3503 15.36236463510480
Lapan A3
1 41603U 16040E   25145.84869937  .00002747  00000-0  97709-4 0  9992
2 41603  97.1366 151.0356 0009890 331.2545  28.8150 15.29756567495531
CAS-2T
1 41847U 16066G   25145.50072042  .00000919  00000-0  14069-3 0  9992
2 41847  98.4202 220.0941 0345472 223.9805 133.3419 14.43429301448846
CAS-4B
1 42759U 17034B   25145.82831525  .00051555  00000-0  58281-3 0  9991
2 42759  43.0081  49.6810 0019769 193.2428 166.7919 15.61421945440290
CAS-4A
1 42761U 17034D   25145.87287091  .00053091  00000-0  57303-3 0  9993
2 42761  43.0123  46.7242 0021174 197.6491 162.3640 15.62561418440326
TechnoSat
1 42829U 17042E   25145.51787137  .00002227  00000-0  17569-3 0  9999
2 42829  97.3918 314.9527 0013080 334.7626  25.2959 15.01634569428464
AO-91
1 43017U 17073E   25145.89532360  .00005132  00000-0  26735-3 0  9993
2 43017  97.5282  17.0435 0172084 216.0735 142.8782 15.04479053407007
S-Net D
1 43186U 18014G   25145.27506262  .00004342  00000-0  25891-3 0  9994
2 43186  97.5648  48.3382 0007354 280.5726  79.4675 15.11672235400061
S-Net B
1 43187U 18014H   25145.28025564  .00004598  00000-0  27402-3 0  9990
2 43187  97.5653  48.3144 0008060 274.4960  85.5349 15.11652838400064
S-Net A
1 43188U 18014J   25145.80504069  .00004401  00000-0  26225-3 0  9996
2 43188  97.5662  48.9819 0007921 272.9581  87.0742 15.11682513400143
S-Net C
1 43189U 18014K   25145.28260842  .00004556  00000-0  27151-3 0  9997
2 43189  97.5676  48.4764 0009453 266.3258  93.6891 15.11649509398617
Ten-Koh
1 43677U 18084G   25145.39193361  .00001729  00000-0  14240-3 0  9993
2 43677  98.0874 317.0463 0005308 327.5804  32.5092 15.00503287357966
PO-101
1 43678U 18084H   25145.82956287  .00002301  00000-0  19887-3 0  9995
2 43678  98.1024 321.3914 0007244 346.7467  13.3562 14.98263057358170
QO-100
1 43700U 18090A   25145.57475381  .00000152  00000-0  00000-0 0  9997
2 43700   0.0157  39.2362 0001983  63.6695  13.2013  1.00272340 23790
MinXSS-2
1 43758U 18099A   25145.43992179  .00012292  00000-0  49101-3 0  9999
2 43758  97.5030 211.4308 0011823 200.8586 159.2171 15.25219769354663
AO-95
1 43770U 18099N   25145.74237371  .00006959  00000-0  35566-3 0  9996
2 43770  97.4924 203.9939 0009066 260.2034  99.8176 15.16952953354302
RANGE-A
1 43773U 18099R   25145.54820310  .00004369  00000-0  28041-3 0  9991
2 43773  97.4492 194.3861 0010013 238.7430 121.2818 15.08945365353959
MOVE-II
1 43780U 18099Y   25145.45324671  .00155931  00000-0  12933-2 0  9992
2 43780  97.4664 219.9910 0006683 195.4746 164.6313 15.69701944355429
SNUSat 2
1 43782U 18099AA  25145.60853109  .00006263  00000-0  34430-3 0  9994
2 43782  97.4609 200.7345 0011778 197.3760 162.7071 15.14376849354238
SnugLite
1 43784U 18099AC  25145.38020002  .00007120  00000-0  36078-3 0  9992
2 43784  97.4423 200.0408 0003530 179.8516 180.2719 15.17270709354334
ITASat 1
1 43786U 18099AE  25145.72976611  .00004650  00000-0  26856-3 0  9996
2 43786  97.4576 200.4069 0012727 254.8417 105.1407 15.12736223354214
EAGLET 1
1 43790U 18099AJ  25145.56403815  .00004095  00000-0  26325-3 0  9998
2 43790  97.4773 200.2502 0010859 236.4099 123.6094 15.08919721353806
ESEO
1 43792U 18099AL  25145.55140799  .00002345  00000-0  18053-3 0  9993
2 43792  97.4472 193.6985 0012333 212.5998 147.4467 15.02548020353561
CSIM
1 43793U 18099AM  25145.81406855  .00155393  00000-0  13204-2 0  9995
2 43793  97.4827 222.6234 0007247 187.7261 172.3890 15.69108941355320
JO-97
1 43803U 18099AX  25145.12068108  .00009543  00000-0  43979-3 0  9994
2 43803  97.4674 204.3383 0007706 186.4035 173.7103 15.20461289354425
Suomi 100
1 43804U 18099AY  25145.57190077  .00008756  00000-0  43198-3 0  9993
2 43804  97.4742 204.1239 0012424 192.4412 167.6517 15.18079590354427
ISAT
1 43879U 18111D   25145.31782488  .00016447  00000-0  58021-3 0  9992
2 43879  97.5975  59.3800 0006581 245.4938 114.5615 15.29311746351365
UWE-4
1 43880U 18111E   25145.65225129  .00012397  00000-0  49200-3 0  9994
2 43880  97.5919  58.3028 0009867 261.8014  98.2104 15.25457096349355
Sparrow
1 43881U 18111F   25145.50804449  .00017976  00000-0  61108-3 0  9996
2 43881  97.6119  62.3940 0004723 302.3639  57.7144 15.30509016351484
Prox-1
1 44339U 19036A   25145.44563120  .00008149  00000-0  10279-2 0  9997
2 44339  23.9952 161.1871 0006776 256.9783 102.9958 14.79642891315774
SONATE
1 44400U 19038Q   25145.79450683  .00203967  00000-0  78022-3 0  9991
2 44400  97.6898 170.8641 0002974 231.2040 128.8965 15.86938419327221
Taurus 1
1 44530U 19059C   25145.84477006  .00005099  00000-0  94614-3 0  9993
2 44530  98.6052 284.5416 0010504  87.5231 272.7173 14.65659630301787
Duchifat 3
1 44854U 19089C   25145.25305380  .00035116  00000-0  71773-3 0  9999
2 44854  36.9430  92.5506 0003664 226.3874 133.6578 15.45226487300640
